When you browse on this site, cookies collect data to enhance your experience and personalize the content and advertising you see.
Visit our Privacy Policy to learn more. By continuing to use the site, you agree to this use of cookies and data.
  • En España
  • Lista de países
  • Para 7 días
  • Temperatura del agua
  • El tiempo en el mapa
  • Informadores
  • user-avatar
    Iniciar sesión

    Tiempo cada hora Ali Sabieh

    Hoy, 17 Febrero, Lunes

    Tiempo Temperatura Precipitaciones Viento Presión Humedad
    00:00 +21°C° 0 mm 7 mps 698 mmHg 82%
    01:00 +20°C° 0 mm 7 mps 698 mmHg 83%
    02:00 +20°C° 0 mm 7 mps 697 mmHg 85%
    03:00 +20°C° 0 mm 7 mps 696 mmHg 86%
    04:00 +20°C° 0 mm 7 mps 697 mmHg 86%
    05:00 +18°C° 0 mm 7 mps 697 mmHg 86%
    06:00 +18°C° 0 mm 8 mps 698 mmHg 86%
    07:00 +20°C° 0 mm 8 mps 698 mmHg 81%
    08:00 +21°C° 0 mm 9 mps 699 mmHg 75%
    09:00 +22°C° 0 mm 9 mps 699 mmHg 69%
    10:00 +23°C° 0 mm 9 mps 699 mmHg 64%
    11:00 +26°C° 0 mm 9 mps 699 mmHg 58%
    12:00 +27°C° 0 mm 9 mps 699 mmHg 53%
    13:00 +28°C° 0 mm 9 mps 698 mmHg 51%
    14:00 +28°C° 0 mm 9 mps 698 mmHg 49%
    15:00 +28°C° 0 mm 9 mps 697 mmHg 49%
    16:00 +27°C° 0 mm 9 mps 697 mmHg 56%
    17:00 +26°C° 0 mm 9 mps 697 mmHg 63%
    18:00 +23°C° 0 mm 8 mps 697 mmHg 70%
    19:00 +23°C° 0 mm 8 mps 697 mmHg 74%
    20:00 +22°C° 0 mm 7 mps 697 mmHg 77%
    21:00 +22°C° 0 mm 7 mps 698 mmHg 81%
    22:00 +21°C° 0 mm 7 mps 698 mmHg 82%
    23:00 +21°C° 0 mm 7 mps 698 mmHg 83%

    Mañana, 18 Febrero, Martes

    Tiempo Temperatura Precipitaciones Viento Presión Humedad
    00:00 +21°C° 0 mm 7 mps 698 mmHg 84%
    01:00 +21°C° 0 mm 7 mps 697 mmHg 84%
    02:00 +21°C° 0 mm 7 mps 697 mmHg 84%
    03:00 +21°C° 0 mm 7 mps 696 mmHg 84%
    04:00 +21°C° 0 mm 7 mps 697 mmHg 83%
    05:00 +21°C° 0 mm 7 mps 697 mmHg 82%
    06:00 +21°C° 0 mm 7 mps 698 mmHg 81%
    07:00 +21°C° 0 mm 7 mps 699 mmHg 79%
    08:00 +22°C° 0 mm 7 mps 699 mmHg 76%
    09:00 +22°C° 0 mm 7 mps 700 mmHg 73%
    10:00 +23°C° 0 mm 7 mps 700 mmHg 67%
    11:00 +26°C° 0 mm 7 mps 699 mmHg 60%
    12:00 +27°C° 0 mm 7 mps 699 mmHg 53%
    13:00 +28°C° 0 mm 7 mps 699 mmHg 49%
    14:00 +29°C° 0 mm 7 mps 698 mmHg 46%
    15:00 +29°C° 0 mm 7 mps 698 mmHg 43%
    16:00 +28°C° 0 mm 7 mps 698 mmHg 48%
    17:00 +27°C° 0 mm 7 mps 698 mmHg 54%
    18:00 +24°C° 0 mm 7 mps 697 mmHg 59%
    19:00 +23°C° 0 mm 7 mps 698 mmHg 65%
    20:00 +22°C° 0 mm 6 mps 698 mmHg 71%
    21:00 +21°C° 0 mm 6 mps 698 mmHg 78%
    22:00 +21°C° 0 mm 6 mps 698 mmHg 79%
    23:00 +21°C° 0 mm 6 mps 698 mmHg 81%

    Pasado mañana, 19 Febrero, Miércoles

    Tiempo Temperatura Precipitaciones Viento Presión Humedad
    00:00 +21°C° 0 mm 6 mps 698 mmHg 83%
    01:00 +21°C° 0 mm 6 mps 697 mmHg 82%
    02:00 +21°C° 0 mm 6 mps 697 mmHg 82%
    03:00 +21°C° 0 mm 6 mps 697 mmHg 81%
    04:00 +21°C° 0 mm 6 mps 697 mmHg 82%
    05:00 +21°C° 0 mm 6 mps 697 mmHg 82%
    06:00 +20°C° 0 mm 6 mps 698 mmHg 83%
    07:00 +21°C° 0 mm 6 mps 698 mmHg 77%
    08:00 +22°C° 0 mm 6 mps 699 mmHg 70%
    09:00 +23°C° 0 mm 6 mps 699 mmHg 64%
    10:00 +24°C° 0 mm 6 mps 699 mmHg 56%
    11:00 +27°C° 0 mm 6 mps 699 mmHg 49%
    12:00 +28°C° 0 mm 5 mps 699 mmHg 41%
    13:00 +29°C° 0 mm 5 mps 698 mmHg 39%
    14:00 +30°C° 0 mm 5 mps 698 mmHg 36%
    15:00 +32°C° 0 mm 5 mps 697 mmHg 34%
    16:00 +30°C° 0 mm 6 mps 697 mmHg 41%
    17:00 +28°C° 0 mm 6 mps 696 mmHg 48%
    18:00 +27°C° 0 mm 6 mps 696 mmHg 54%
    19:00 +26°C° 0 mm 6 mps 696 mmHg 62%
    20:00 +23°C° 0 mm 5 mps 696 mmHg 69%
    21:00 +22°C° 0 mm 5 mps 697 mmHg 76%
    22:00 +22°C° 0 mm 5 mps 696 mmHg 78%
    23:00 +21°C° 0 mm 5 mps 696 mmHg 80%

    20 Febrero, Jueves

    Tiempo Temperatura Precipitaciones Viento Presión Humedad
    00:00 +21°C° 0 mm 5 mps 696 mmHg 83%
    01:00 +20°C° 0 mm 4 mps 696 mmHg 83%
    02:00 +20°C° 0 mm 4 mps 696 mmHg 84%
    03:00 +20°C° 0 mm 4 mps 696 mmHg 85%
    04:00 +20°C° 0 mm 4 mps 696 mmHg 85%
    05:00 +20°C° 0 mm 4 mps 696 mmHg 84%
    06:00 +20°C° 0 mm 3 mps 696 mmHg 84%
    07:00 +21°C° 0 mm 3 mps 697 mmHg 79%
    08:00 +21°C° 0 mm 3 mps 698 mmHg 73%
    09:00 +22°C° 0 mm 3 mps 699 mmHg 67%
    10:00 +25°C° 0 mm 3 mps 699 mmHg 60%
    11:00 +26°C° 0 mm 3 mps 699 mmHg 53%
    12:00 +28°C° 0 mm 3 mps 699 mmHg 46%
    13:00 +29°C° 0 mm 3 mps 698 mmHg 42%
    14:00 +30°C° 0 mm 3 mps 698 mmHg 39%
    15:00 +31°C° 0 mm 3 mps 697 mmHg 36%
    16:00 +30°C° 0 mm 4 mps 697 mmHg 40%
    17:00 +30°C° 0 mm 4 mps 697 mmHg 43%
    18:00 +29°C° 0 mm 4 mps 697 mmHg 47%
    19:00 +27°C° 0 mm 4 mps 697 mmHg 54%
    20:00 +26°C° 0 mm 4 mps 698 mmHg 61%
    21:00 +25°C° 0 mm 4 mps 698 mmHg 67%
    22:00 +23°C° 0 mm 4 mps 698 mmHg 69%
    23:00 +23°C° 0 mm 4 mps 697 mmHg 71%

    21 Febrero, Viernes

    Tiempo Temperatura Precipitaciones Viento Presión Humedad
    00:00 +22°C° 0 mm 3 mps 697 mmHg 73%
    01:00 +22°C° 0 mm 3 mps 697 mmHg 75%
    02:00 +22°C° 0 mm 3 mps 697 mmHg 78%
    03:00 +21°C° 0 mm 3 mps 696 mmHg 81%
    04:00 +21°C° 0 mm 2 mps 697 mmHg 81%
    05:00 +21°C° 0 mm 2 mps 697 mmHg 81%
    06:00 +21°C° 0 mm 2 mps 697 mmHg 82%
    07:00 +23°C° 0 mm 2 mps 698 mmHg 78%
    08:00 +23°C° 0 mm 2 mps 699 mmHg 74%
    09:00 +24°C° 0 mm 2 mps 699 mmHg 71%
    16:00 +29°C° 0 mm 5 mps 697 mmHg 56%
    17:00 +28°C° 0 mm 5 mps 697 mmHg 59%
    18:00 +27°C° 0 mm 6 mps 697 mmHg 62%
    19:00 +26°C° 0 mm 5 mps 697 mmHg 68%
    20:00 +25°C° 0 mm 5 mps 697 mmHg 75%
    21:00 +23°C° 0 mm 5 mps 698 mmHg 81%
    22:00 +22°C° 0 mm 5 mps 698 mmHg 82%
    23:00 +22°C° 0 mm 5 mps 697 mmHg 83%

    22 Febrero, Sábado

    Tiempo Temperatura Precipitaciones Viento Presión Humedad
    00:00 +22°C° 0 mm 4 mps 697 mmHg 84%
    01:00 +22°C° 0 mm 4 mps 697 mmHg 85%
    02:00 +21°C° 0 mm 3 mps 697 mmHg 85%
    03:00 +21°C° 0 mm 3 mps 696 mmHg 85%
    04:00 +21°C° 0 mm 3 mps 697 mmHg 85%
    05:00 +21°C° 0 mm 3 mps 697 mmHg 85%
    06:00 +21°C° 0 mm 3 mps 697 mmHg 85%
    07:00 +22°C° 0 mm 4 mps 698 mmHg 81%
    08:00 +22°C° 0 mm 4 mps 699 mmHg 77%
    09:00 +23°C° 0 mm 5 mps 700 mmHg 73%
    10:00 +25°C° 0 mm 5 mps 699 mmHg 69%
    11:00 +25°C° 0 mm 5 mps 699 mmHg 66%
    12:00 +26°C° 0 mm 5 mps 699 mmHg 63%
    13:00 +27°C° 0 mm 5 mps 698 mmHg 57%
    14:00 +28°C° 0 mm 5 mps 698 mmHg 50%
    15:00 +30°C° 0 mm 5 mps 697 mmHg 44%
    16:00 +29°C° 0 mm 6 mps 697 mmHg 48%
    17:00 +28°C° 0 mm 6 mps 697 mmHg 52%
    18:00 +27°C° 0 mm 6 mps 697 mmHg 56%
    19:00 +24°C° 0 mm 6 mps 697 mmHg 64%
    20:00 +23°C° 0 mm 6 mps 698 mmHg 72%
    21:00 +22°C° 0 mm 6 mps 698 mmHg 80%
    22:00 +22°C° 0 mm 5 mps 698 mmHg 81%
    23:00 +22°C° 0 mm 5 mps 697 mmHg 83%
    Mostrar más